Location: Unspecified
(0.0000°N, 0.0000°E)
Time: 22:33:23
(UTC+01:00)

JASON 3 - Pass Details

Date: 08 October 2020
Orbit: 1332 x 1343 km, 66.0° (Epoch: 27 October)

Event Time Altitude Azimuth Distance (km) Brightness Sun altitude
Rises 19:59:33 0° 7° (N) 4,343 ? -3.0°
Reaches altitude 10° 20:03:14 10° 22° (NNE) 3,372 ? -3.9°
Maximum altitude 20:09:11 22° 69° (ENE) 2,568 ? -5.4°
Drops below altitude 10° 20:15:06 10° 116° (ESE) 3,374 ? -6.9°
Sets 20:18:43 0° 131° (SE) 4,346 ? -7.8°
